Time,TemperatureF,DewpointF,PressureIn,WindDirection,WindDirectionDegrees,WindSpeedMPH,WindSpeedGustMPH,Humidity,HourlyPrecipIn,Conditions,Clouds,dailyrainin,SoftwareType,DateUTC
2013-08-31 00:07:00,69.4,69.0,29.80,ESE,116,0.0,0.0,98,0.00,,,0.00,weatherlink.com 1.10,2013-08-31 04:07:00,
2013-08-31 00:23:00,69.7,69.0,29.80,ESE,116,0.0,0.0,98,0.02,,,0.02,weatherlink.com 1.10,2013-08-31 04:23:00,
2013-08-31 00:39:00,69.7,69.0,29.79,ESE,116,0.0,0.0,98,0.02,,,0.02,weatherlink.com 1.10,2013-08-31 04:39:00,
2013-08-31 00:55:00,69.7,69.0,29.79,ESE,115,0.0,1.0,98,0.02,,,0.02,weatherlink.com 1.10,2013-08-31 04:55:00,
2013-08-31 01:11:00,69.5,69.0,29.79,ESE,116,0.0,0.0,98,0.01,,,0.02,weatherlink.com 1.10,2013-08-31 05:11:00,
2013-08-31 01:25:00,69.2,69.0,29.78,ESE,115,0.0,0.0,98,0.00,,,0.02,weatherlink.com 1.10,2013-08-31 05:25:00,
2013-08-31 01:39:00,69.1,69.0,29.79,ESE,116,0.0,0.0,98,0.01,,,0.03,weatherlink.com 1.10,2013-08-31 05:39:00,
2013-08-31 01:54:00,69.1,69.0,29.77,ESE,116,0.0,0.0,98,0.02,,,0.04,weatherlink.com 1.10,2013-08-31 05:54:00,
2013-08-31 02:09:00,69.2,69.0,29.78,ESE,116,0.0,0.0,98,0.03,,,0.05,weatherlink.com 1.10,2013-08-31 06:09:00,
2013-08-31 02:23:00,69.1,69.0,29.77,ESE,115,0.0,1.0,98,0.04,,,0.06,weatherlink.com 1.10,2013-08-31 06:23:00,
2013-08-31 02:37:00,69.1,69.0,29.77,ESE,116,0.0,1.0,99,0.03,,,0.06,weatherlink.com 1.10,2013-08-31 06:37:00,
2013-08-31 02:52:00,69.2,69.0,29.76,ESE,116,0.0,1.0,99,0.02,,,0.06,weatherlink.com 1.10,2013-08-31 06:52:00,
2013-08-31 03:07:00,69.2,69.0,29.76,ESE,116,0.0,1.0,99,0.02,,,0.07,weatherlink.com 1.10,2013-08-31 07:07:00,
2013-08-31 03:23:00,69.4,69.0,29.76,East,86,0.0,3.0,99,0.02,,,0.08,weatherlink.com 1.10,2013-08-31 07:23:00,
2013-08-31 03:40:00,69.4,69.0,29.76,NE,51,0.0,1.0,98,0.02,,,0.08,weatherlink.com 1.10,2013-08-31 07:40:00,
2013-08-31 03:56:00,69.2,69.0,29.77,West,263,0.0,1.0,98,0.01,,,0.08,weatherlink.com 1.10,2013-08-31 07:56:00,
2013-08-31 04:12:00,69.0,68.0,29.76,West,263,0.0,0.0,98,0.01,,,0.08,weatherlink.com 1.10,2013-08-31 08:12:00,
2013-08-31 04:28:00,69.0,69.0,29.76,West,262,0.0,0.0,99,0.01,,,0.09,weatherlink.com 1.10,2013-08-31 08:28:00,
2013-08-31 04:44:00,68.9,69.0,29.76,West,262,0.0,1.0,99,0.01,,,0.09,weatherlink.com 1.10,2013-08-31 08:44:00,
2013-08-31 05:01:00,68.9,69.0,29.76,West,262,0.0,0.0,99,0.01,,,0.09,weatherlink.com 1.10,2013-08-31 09:01:00,
2013-08-31 05:17:00,69.0,69.0,29.76,West,263,0.0,0.0,99,0.01,,,0.09,weatherlink.com 1.10,2013-08-31 09:17:00,
2013-08-31 05:33:00,69.2,69.0,29.75,West,263,0.0,0.0,99,0.00,,,0.09,weatherlink.com 1.10,2013-08-31 09:33:00,
2013-08-31 05:49:00,69.3,69.0,29.75,West,262,0.0,0.0,99,0.00,,,0.09,weatherlink.com 1.10,2013-08-31 09:49:00,
2013-08-31 06:06:00,69.4,69.0,29.75,West,262,0.0,0.0,99,0.00,,,0.09,weatherlink.com 1.10,2013-08-31 10:06:00,
2013-08-31 06:22:00,69.5,69.0,29.75,West,262,0.0,1.0,99,0.00,,,0.09,weatherlink.com 1.10,2013-08-31 10:22:00,
2013-08-31 06:38:00,69.6,69.0,29.76,SE,128,0.0,1.0,99,0.00,,,0.09,weatherlink.com 1.10,2013-08-31 10:38:00,
2013-08-31 06:54:00,69.7,69.0,29.76,SE,127,0.0,1.0,99,0.00,,,0.09,weatherlink.com 1.10,2013-08-31 10:54:00,
2013-08-31 07:14:00,70.1,70.0,29.76,SE,127,0.0,1.0,99,0.00,,,0.09,weatherlink.com 1.10,2013-08-31 11:14:00,
2013-08-31 07:30:00,70.2,70.0,29.76,SE,127,0.0,0.0,99,0.00,,,0.09,weatherlink.com 1.10,2013-08-31 11:30:00,
2013-08-31 07:46:00,70.5,70.0,29.76,SE,127,0.0,0.0,99,0.00,,,0.09,weatherlink.com 1.10,2013-08-31 11:46:00,
2013-08-31 08:04:00,70.7,70.0,29.77,SE,127,0.0,1.0,99,0.00,,,0.09,weatherlink.com 1.10,2013-08-31 12:04:00,
2013-08-31 08:20:00,70.9,71.0,29.77,SE,127,0.0,0.0,99,0.00,,,0.09,weatherlink.com 1.10,2013-08-31 12:20:00,
2013-08-31 08:36:00,71.1,71.0,29.77,SE,127,0.0,0.0,99,0.00,,,0.09,weatherlink.com 1.10,2013-08-31 12:36:00,
2013-08-31 08:52:00,71.4,71.0,29.77,SE,127,0.0,0.0,99,0.00,,,0.09,weatherlink.com 1.10,2013-08-31 12:52:00,
2013-08-31 09:08:00,71.9,72.0,29.77,SE,127,0.0,0.0,99,0.00,,,0.09,weatherlink.com 1.10,2013-08-31 13:08:00,
2013-08-31 09:25:00,72.3,72.0,29.77,SE,127,0.0,0.0,99,0.00,,,0.09,weatherlink.com 1.10,2013-08-31 13:25:00,
2013-08-31 09:41:00,73.1,73.0,29.78,SE,127,0.0,1.0,99,0.00,,,0.09,weatherlink.com 1.10,2013-08-31 13:41:00,
2013-08-31 09:57:00,74.0,74.0,29.78,SE,127,0.0,0.0,99,0.00,,,0.09,weatherlink.com 1.10,2013-08-31 13:57:00,
2013-08-31 10:13:00,75.1,74.0,29.78,SE,127,0.0,1.0,97,0.00,,,0.09,weatherlink.com 1.10,2013-08-31 14:13:00,
2013-08-31 10:29:00,76.0,74.0,29.78,West,274,1.0,1.0,95,0.00,,,0.09,weatherlink.com 1.10,2013-08-31 14:29:00,
2013-08-31 10:47:00,77.1,75.0,29.77,South,186,0.0,1.0,92,0.00,,,0.09,weatherlink.com 1.10,2013-08-31 14:47:00,
2013-08-31 11:04:00,78.0,73.0,29.78,WSW,255,1.0,3.0,86,0.00,,,0.09,weatherlink.com 1.10,2013-08-31 15:04:00,
2013-08-31 11:20:00,78.3,73.0,29.78,WSW,257,0.0,4.0,84,0.00,,,0.09,weatherlink.com 1.10,2013-08-31 15:20:00,
2013-08-31 11:36:00,78.5,74.0,29.77,West,261,0.0,2.0,85,0.00,,,0.09,weatherlink.com 1.10,2013-08-31 15:36:00,
2013-08-31 11:52:00,78.4,74.0,29.77,WSW,257,0.0,1.0,85,0.00,,,0.09,weatherlink.com 1.10,2013-08-31 15:52:00,
2013-08-31 12:08:00,78.0,73.0,29.77,West,273,0.0,2.0,86,0.00,,,0.09,weatherlink.com 1.10,2013-08-31 16:08:00,
2013-08-31 12:25:00,78.5,74.0,29.77,WSW,258,0.0,1.0,86,0.00,,,0.09,weatherlink.com 1.10,2013-08-31 16:25:00,
2013-08-31 12:41:00,79.7,74.0,29.77,West,274,0.0,4.0,82,0.00,,,0.09,weatherlink.com 1.10,2013-08-31 16:41:00,
2013-08-31 12:57:00,79.9,74.0,29.76,SW,219,0.0,2.0,81,0.00,,,0.09,weatherlink.com 1.10,2013-08-31 16:57:00,
2013-08-31 13:14:00,79.3,72.0,29.76,West,269,1.0,2.0,79,0.00,,,0.09,weatherlink.com 1.10,2013-08-31 17:14:00,
2013-08-31 13:30:00,80.6,75.0,29.76,SW,226,0.0,3.0,83,0.00,,,0.09,weatherlink.com 1.10,2013-08-31 17:30:00,
2013-08-31 13:46:00,82.7,75.0,29.75,WSW,237,1.0,4.0,78,0.00,,,0.09,weatherlink.com 1.10,2013-08-31 17:46:00,
2013-08-31 14:05:00,83.6,73.0,29.75,West,277,1.0,5.0,71,0.00,,,0.09,weatherlink.com 1.10,2013-08-31 18:05:00,
2013-08-31 14:19:00,79.7,73.0,29.76,NNW,337,0.0,4.0,79,0.00,,,0.09,weatherlink.com 1.10,2013-08-31 18:19:00,
2013-08-31 14:34:00,78.4,73.0,29.76,NW,305,0.0,4.0,84,0.00,,,0.09,weatherlink.com 1.10,2013-08-31 18:34:00,
2013-08-31 14:48:00,79.6,73.0,29.76,WNW,302,0.0,6.0,81,0.00,,,0.09,weatherlink.com 1.10,2013-08-31 18:48:00,
2013-08-31 15:03:00,79.3,73.0,29.76,NW,315,2.0,7.0,80,0.00,,,0.09,weatherlink.com 1.10,2013-08-31 19:03:00,
2013-08-31 15:17:00,81.2,73.0,29.75,NE,42,0.0,4.0,75,0.00,,,0.09,weatherlink.com 1.10,2013-08-31 19:17:00,
2013-08-31 15:31:00,81.5,73.0,29.76,WSW,238,2.0,6.0,75,0.00,,,0.09,weatherlink.com 1.10,2013-08-31 19:31:00,
2013-08-31 15:46:00,80.6,72.0,29.75,NW,318,0.0,4.0,74,0.00,,,0.09,weatherlink.com 1.10,2013-08-31 19:46:00,
2013-08-31 16:00:00,81.0,72.0,29.76,NNW,330,2.0,4.0,74,0.00,,,0.09,weatherlink.com 1.10,2013-08-31 20:00:00,
2013-08-31 16:17:00,80.7,71.0,29.77,NW,316,1.0,6.0,73,0.00,,,0.09,weatherlink.com 1.10,2013-08-31 20:17:00,
2013-08-31 16:33:00,81.3,73.0,29.77,West,276,7.0,8.0,75,0.00,,,0.09,weatherlink.com 1.10,2013-08-31 20:33:00,
2013-08-31 16:53:00,82.0,71.0,29.77,ENE,74,0.0,9.0,70,0.00,,,0.09,weatherlink.com 1.10,2013-08-31 20:53:00,
2013-08-31 17:09:00,81.5,71.0,29.77,NW,323,0.0,4.0,70,0.00,,,0.09,weatherlink.com 1.10,2013-08-31 21:09:00,
2013-08-31 17:25:00,79.5,70.0,29.78,NNE,16,0.0,2.0,74,0.00,,,0.09,weatherlink.com 1.10,2013-08-31 21:25:00,
2013-08-31 17:41:00,78.8,71.0,29.78,NW,314,0.0,5.0,76,0.00,,,0.09,weatherlink.com 1.10,2013-08-31 21:41:00,
2013-08-31 17:58:00,78.7,70.0,29.79,NW,325,1.0,3.0,76,0.00,,,0.09,weatherlink.com 1.10,2013-08-31 21:58:00,
2013-08-31 18:14:00,78.0,71.0,29.79,West,279,0.0,4.0,78,0.00,,,0.09,weatherlink.com 1.10,2013-08-31 22:14:00,
2013-08-31 18:30:00,77.7,70.0,29.79,NW,310,1.0,3.0,77,0.00,,,0.09,weatherlink.com 1.10,2013-08-31 22:30:00,
2013-08-31 18:46:00,76.8,70.0,29.79,NW,315,1.0,3.0,80,0.00,,,0.09,weatherlink.com 1.10,2013-08-31 22:46:00,
2013-08-31 19:03:00,76.2,70.0,29.80,WSW,252,0.0,1.0,81,0.00,,,0.09,weatherlink.com 1.10,2013-08-31 23:03:00,
2013-08-31 19:19:00,75.3,69.0,29.80,WNW,288,0.0,4.0,82,0.00,,,0.09,weatherlink.com 1.10,2013-08-31 23:19:00,
2013-08-31 19:35:00,74.5,69.0,29.80,West,272,0.0,3.0,83,0.00,,,0.09,weatherlink.com 1.10,2013-08-31 23:35:00,
2013-08-31 19:51:00,73.7,69.0,29.82,West,272,0.0,0.0,86,0.00,,,0.09,weatherlink.com 1.10,2013-08-31 23:51:00,
2013-08-31 20:07:00,73.3,69.0,29.82,WSW,255,0.0,1.0,87,0.00,,,0.09,weatherlink.com 1.10,2013-09-01 00:07:00,
2013-08-31 20:23:00,73.0,69.0,29.82,West,269,0.0,1.0,87,0.00,,,0.09,weatherlink.com 1.10,2013-09-01 00:23:00,
2013-08-31 20:39:00,72.0,69.0,29.82,West,267,0.0,1.0,89,0.00,,,0.09,weatherlink.com 1.10,2013-09-01 00:39:00,
2013-08-31 20:56:00,72.2,69.0,29.82,West,269,0.0,1.0,89,0.00,,,0.09,weatherlink.com 1.10,2013-09-01 00:56:00,
2013-08-31 21:12:00,72.3,69.0,29.83,West,268,0.0,2.0,88,0.00,,,0.09,weatherlink.com 1.10,2013-09-01 01:12:00,
2013-08-31 21:28:00,71.9,68.0,29.84,WSW,250,0.0,1.0,88,0.00,,,0.09,weatherlink.com 1.10,2013-09-01 01:28:00,
2013-08-31 21:44:00,71.8,68.0,29.85,West,262,0.0,3.0,89,0.00,,,0.09,weatherlink.com 1.10,2013-09-01 01:44:00,
2013-08-31 22:00:00,71.9,69.0,29.85,East,88,0.0,1.0,90,0.00,,,0.09,weatherlink.com 1.10,2013-09-01 02:00:00,
2013-08-31 22:15:00,71.7,69.0,29.85,East,89,0.0,0.0,90,0.00,,,0.09,weatherlink.com 1.10,2013-09-01 02:15:00,
2013-08-31 22:29:00,71.5,69.0,29.85,East,89,0.0,0.0,91,0.00,,,0.09,weatherlink.com 1.10,2013-09-01 02:29:00,
2013-08-31 22:44:00,71.6,69.0,29.86,WSW,258,0.0,1.0,90,0.00,,,0.09,weatherlink.com 1.10,2013-09-01 02:44:00,
2013-08-31 22:58:00,71.5,69.0,29.86,WSW,256,0.0,1.0,91,0.00,,,0.09,weatherlink.com 1.10,2013-09-01 02:58:00,
2013-08-31 23:13:00,71.4,69.0,29.86,West,261,0.0,1.0,92,0.00,,,0.09,weatherlink.com 1.10,2013-09-01 03:13:00,
2013-08-31 23:27:00,71.0,69.0,29.85,WSW,255,0.0,1.0,93,0.00,,,0.09,weatherlink.com 1.10,2013-09-01 03:27:00,
2013-08-31 23:42:00,70.9,69.0,29.85,WSW,255,0.0,1.0,93,0.00,,,0.09,weatherlink.com 1.10,2013-09-01 03:42:00,
2013-08-31 23:56:00,71.2,69.0,29.86,WSW,247,0.0,1.0,93,0.00,,,0.09,weatherlink.com 1.10,2013-09-01 03:56:00,